This demonstration page uses our WeatherBlox Daily Observations layout. Learn more.

Left ArrowRight Arrow

47.50024, -111.30081

Hourly Observations for May 27, 2015

Temp ( °F °C ) Dew Point ( °F °C ) Humidity (%) Winds ( mph kmh ) Pressure ( in mb ) Visibility ( mi km ) Precip ( " mm )
12:53 am 00:53 Clear 50 10 47 8.3 89 89 Calm 29.96 1015 10 16 0.00 0.00
1:53 am 01:53 Clear 50 10 47 8.3 89 89 Calm 29.96 1015 10 16 0.00 0.00
2:53 am 02:53 Clear 47 8.3 45 7.2 93 93 WNW 5 7 29.98 1015 10 16 0.00 0.00
3:49 am 03:49 Partly Cloudy with Mist and Fog 46 8 46 8 100 100 WSW 9 15 30.00 1016 5 8 0.00 0.00
3:53 am 03:53 Partly Cloudy 47 8.3 46 7.8 97 97 WSW 10 17 29.99 1016 8 13 0.00 0.00
4:53 am 04:53 Mostly Cloudy 48 8.9 46 7.8 93 93 WSW 10 17 29.98 1015 10 16 0.00 0.00
5:53 am 05:53 Cloudy 50 10 48 8.9 93 93 SW 12 19 29.99 1016 10 16 0.00 0.00
6:53 am 06:53 Cloudy 50 10 48 8.9 93 93 SW 9 15 30.01 1016 10 16 0.00 0.00
7:53 am 07:53 Cloudy 51 10.6 48 8.9 89 89 SW 10 17 30.00 1016 10 16 0.00 0.00
8:53 am 08:53 Cloudy 52 11.1 48 8.9 86 86 WSW 9 15 30.01 1016 10 16 0.00 0.00
9:32 am 09:32 Cloudy 52 11 48 9 88 88 WSW 9 15 29.97 1015 10 16 0.00 0.00
9:53 am 09:53 Cloudy with Light Rain 52 11.1 48 8.9 86 86 W 10 17 30.02 1017 10 16 0.00 0.03
10:04 am 10:04 Cloudy with Light Rain 52 11 48 9 88 88 SW 10 17 29.97 1015 10 16 0.00 0.00
10:53 am 10:53 Cloudy with Light Rain 52 11.1 50 10 93 93 SW 9 15 30.03 1017 8 13 0.01 0.25
11:48 am 11:48 Cloudy 54 12 50 10 88 88 WSW 12 19 29.97 1015 10 16 0.00 0.00
11:53 am 11:53 Cloudy 54 12.2 50 10 87 87 WSW 9 15 30.03 1017 10 16 0.00 0.03
12:09 pm 12:09 Cloudy 55 12.8 50 10 83 83 W 10 17 29.94 1014 10 16 0.00 0.00
12:21 pm 12:21 Cloudy 55 12.8 49 9.4 80 80 WSW 13 20 29.94 1014 10 16 0.00 0.00
12:28 pm 12:28 Cloudy 55 13 48 9 77 77 WSW 12 19 29.94 1014 10 16 0.00 0.00
12:53 pm 12:53 Cloudy 57 13.9 49 9.4 74 74 WNW 12 19 30.01 1016 10 16 0.00 0.03
1:38 pm 13:38 Mostly Cloudy 61 16 48 9 63 63 W 10 17 29.88 1012 10 16 0.00 0.00
1:53 pm 13:53 Mostly Cloudy 62 16.7 49 9.4 62 62 W 13 20 29.98 1015 10 16 0.00 0.00
2:49 pm 14:49 Mostly Cloudy 61 16 50 10 68 68 WSW 10 17 29.88 1012 10 16 0.00 0.00
2:53 pm 14:53 Mostly Cloudy 60 15.6 49 9.4 67 67 WSW 10 17 29.99 1016 10 16 0.00 0.00
3:53 pm 15:53 Sunny 63 17.2 48 8.9 58 58 WSW 5 7 29.97 1015 10 16 0.00 0.00
4:53 pm 16:53 Partly Cloudy 64 17.8 48 8.9 56 56 WSW 5 7 29.95 1014 10 16 0.00 0.00
5:53 pm 17:53 Sunny 64 17.8 47 8.3 54 54 WNW 6 9 29.93 1014 10 16 0.00 0.00
6:53 pm 18:53 Partly Cloudy 63 17.2 48 8.9 58 58 NNW 8 13 29.93 1014 10 16 0.00 0.00
7:53 pm 19:53 Sunny 63 17.2 48 8.9 58 58 WNW 3 6 29.93 1014 10 16 0.00 0.00
8:53 pm 20:53 Sunny 58 14.4 49 9.4 72 72 NNW 3 6 29.95 1014 10 16 0.00 0.00
9:53 pm 21:53 Partly Cloudy 55 12.8 47 8.3 74 74 NNW 3 6 29.97 1015 10 16 0.00 0.00
10:53 pm 22:53 Mostly Cloudy 54 12.2 46 7.8 75 75 NW 5 7 29.98 1015 10 16 0.00 0.00
11:53 pm 23:53 Mostly Clear 55 12.8 46 7.8 72 72 Calm 29.98 1015 10 16 0.00 0.00

Powered by AerisWeather